Temperature
20 21 22 23 23 20 21 19 20 21 20 21 20 20 21 21 21 21 22 22 22 22 22 21 21 20 20 20 19 19 18 18 18 18 18 18 17 17 17 16 16 16 16 16
21 21 22 23 23 21 22 21 21 21 21 20 20 21 21 21 21 21 22 23 23 22 22 21 21 21 20 20 19 18 18 18 18 18 17 17 17 17 16 16 16 15 15 15
19 21 22 22 21 21 21 21 21 21 21 20 19 20 21 21 21 22 23 23 23 22 22 22 21 21 20 19 19 18 18 18 18 17 17 17 17 16 16 16 15 15 15 15
17 20 21 20 20 21 20 20 19 19 19 19 20 20 21 22 22 23 23 23 23 22 22 21 21 20 20 19 19 18 18 18 17 17 17 17 16 16 16 15 15 15 15 15
15 18 19 21 21 20 20 20 19 18 19 19 19 20 20 21 22 23 23 23 23 22 21 21 21 20 19 19 18 18 18 17 17 17 16 16 16 16 15 15 15 15 15 14
15 18 19 20 20 20 20 20 19 18 18 18 19 18 19 20 21 22 22 22 22 21 21 21 20 19 19 18 18 18 17 17 17 16 16 16 16 15 15 15 15 14 14 14
16 17 18 18 18 19 20 19 18 18 18 18 18 18 19 20 21 21 21 21 21 21 21 20 20 19 19 18 18 18 17 17 16 16 16 15 15 15 15 14 14 14 14 13
14 17 18 17 17 18 17 18 18 18 18 18 18 18 19 20 20 21 21 21 20 20 20 19 19 19 19 18 18 17 17 16 16 15 15 15 15 15 14 14 14 14 13 13
14 15 15 15 16 17 17 17 18 18 18 18 18 18 19 19 19 20 20 20 20 19 19 19 19 18 18 18 17 17 16 16 16 15 15 15 14 14 14 14 13 13 13 13
13 14 15 15 16 17 17 18 18 18 18 19 18 18 18 18 18 19 19 19 19 19 19 18 18 18 18 17 17 16 16 16 15 15 15 14 14 14 13 13 13 13 12 12
13 14 15 16 16 17 17 18 18 18 18 18 18 18 18 18 18 18 18 18 18 18 18 18 17 17 17 16 16 16 15 15 15 15 14 14 14 13 13 13 12 12 12 12
13 14 13 15 16 17 17 17 18 18 18 18 18 18 18 18 18 17 17 17 17 17 17 17 16 16 16 16 16 15 15 15 15 14 14 14 13 13 12 12 12 11 11 11
15 15 15 16 16 16 17 17 17 17 17 17 17 17 17 17 17 16 17 17 17 16 16 16 15 15 15 15 15 15 15 15 14 14 14 13 13 13 12 12 12 11 11 11
15 16 15 15 15 16 16 16 16 16 16 16 16 16 16 16 16 16 16 16 16 16 15 15 15 15 15 15 14 14 14 14 14 14 13 13 13 12 12 11 11 11 11 10
15 15 15 15 15 15 15 16 16 16 16 16 16 16 16 16 15 15 15 15 15 15 15 15 15 15 14 14 14 14 14 14 13 13 13 12 12 11 11 11 11 11 11 10
15 15 15 15 15 15 15 15 15 15 15 15 15 15 15 15 15 15 14 14 14 14 14 14 14 14 14 13 13 13 13 13 13 13 12 12 11 11 11 11 10 10 10 10
14 14 14 14 15 14 14 14 14 14 14 14 14 14 14 14 14 14 14 14 14 14 13 13 13 13 13 13 13 13 13 12 12 12 12 11 11 11 11 10 10 10 10 9
14 14 14 14 14 14 14 14 14 14 14 14 14 14 14 14 14 13 13 13 13 13 13 13 13 13 12 12 12 12 12 12 12 11 11 11 11 10 10 10 10 10 9 9
13 13 13 13 13 13 13 13 13 13 13 13 13 13 13 13 13 13 12 12 12 12 12 12 12 12 12 11 11 11 11 11 11 11 11 10 10 10 10 10 9 9 9 9
12 13 13 13 13 13 13 13 13 13 13 13 13 13 12 12 12 12 12 12 12 12 12 12 11 11 11 11 11 11 11 11 11 10 10 10 10 10 10 9 9 9 9 9
12 12 12 12 12 12 12 12 12 12 12 12 12 12 12 12 12 11 11 11 11 11 11 11 11 11 11 10 10 10 10 10 10 10 10 10 9 9 9 9 9 9 9 9
11 11 11 11 11 11 11 11 11 12 12 11 11 11 11 11 11 11 11 11 11 11 11 11 10 10 10 10 10 10 10 10 10 9 9 9 9 9 9 9 9 9 8 8
10 10 10 11 11 11 11 11 11 11 11 11 11 11 11 11 11 11 11 11 10 10 10 10 10 10 10 10 10 9 9 9 9 9 9 9 9 9 9 8 8 8 8 8
9 9 10 10 10 10 10 10 10 10 10 10 10 10 10 10 10 10 10 10 10 10 10 10 10 10 9 9 9 9 9 9 9 9 9 9 8 8 8 8 8 8 8 8
9 9 9 9 9 9 10 10 10 10 10 10 10 10 10 10 10 10 10 10 10 10 9 9 9 9 9 9 9 9 9 9 8 8 8 8 8 8 8 8 8 7 7 7
9 9 9 9 9 9 9 9 9 9 9 9 9 9 9 10 10 10 10 10 9 9 9 9 9 9 9 9 9 8 8 8 8 8 8 8 8 7 7 7 7 7 7 7
8 9 9 9 9 9 9 9 9 9 9 9 9 9 9 9 9 9 9 9 9 9 9 9 9 8 8 8 8 8 8 8 7 7 7 7 7 7 7 7 7 7 7 6
Wind_Speed
5 5 4 4 6 7 7 9 9 9 9 10 9 9 8 6 7 7 7 7 7 7 6 6 5 5 5 5 5 5 5 5 4 4 3 3 3 3 3 3 2 2 2 2
1 2 3 2 2 6 5 5 6 4 7 8 3 3 4 6 8 9 9 9 8 7 7 7 7 6 5 5 5 5 5 5 4 4 4 3 3 3 3 3 3 3 3 3
3 2 3 2 3 4 3 2 5 7 7 2 2 6 8 9 9 9 9 9 9 8 7 7 7 7 6 5 5 5 5 4 4 4 4 3 3 4 3 3 3 3 3 3
3 3 5 7 2 3 4 1 1 4 4 3 4 2 2 4 7 8 7 8 7 6 6 5 6 6 6 6 5 5 4 4 4 4 4 4 4 4 3 3 3 3 3 3
4 4 3 3 1 2 3 1 2 3 2 1 3 4 3 1 4 6 6 6 5 6 6 6 7 7 8 6 5 4 4 4 5 5 5 4 4 3 3 3 3 3 3 3
5 5 7 6 2 2 4 1 3 1 2 2 4 3 2 1 2 3 3 4 5 6 7 7 6 7 8 6 5 4 4 4 5 5 5 5 4 3 3 3 2 3 3 2
4 3 5 5 6 1 4 5 2 1 2 3 2 2 1 1 2 4 4 5 6 7 6 5 7 8 7 6 5 4 4 5 5 5 5 5 4 3 4 4 3 3 2 2
4 4 6 4 3 3 4 1 1 1 2 4 4 3 3 3 4 5 5 6 7 7 6 4 6 7 7 5 4 5 5 5 5 5 4 5 5 4 4 4 3 2 2 3
5 5 4 3 2 1 1 2 1 3 3 5 5 4 4 5 5 6 5 5 5 7 6 5 5 6 6 5 5 6 5 5 4 4 4 4 5 4 3 3 2 1 1 1
1 2 3 4 3 3 2 2 2 3 4 5 5 5 5 5 5 5 5 4 4 5 6 4 3 4 4 5 6 7 6 5 5 5 4 4 4 3 3 3 2 2 1 1
1 2 3 4 3 2 3 4 5 5 4 5 6 5 4 4 4 4 4 4 3 4 4 3 3 3 4 5 6 6 6 5 4 4 5 4 3 2 2 1 2 3 2 2
5 5 3 3 3 2 3 3 4 5 4 4 4 4 4 3 3 3 4 4 4 3 3 3 3 3 3 4 6 7 5 4 4 4 4 4 4 3 4 3 2 2 2 2
4 3 3 1 2 2 1 1 2 3 3 2 2 3 4 3 3 3 3 4 3 3 3 3 3 3 3 4 5 5 5 5 4 4 4 4 4 4 2 2 4 3 2 2
1 3 2 1 1 2 2 2 3 4 3 3 2 3 4 4 3 3 3 2 3 3 2 3 3 2 2 3 4 4 4 5 5 4 4 4 4 3 3 2 1 1 1 1
1 2 3 1 2 2 2 3 4 3 3 3 3 3 4 4 3 2 2 3 3 3 2 2 2 1 2 3 4 4 4 3 4 4 4 4 4 3 3 3 2 1 1 2
1 1 2 2 1 1 1 1 2 0 0 1 1 1 2 3 3 2 2 3 4 2 1 2 2 2 2 3 4 3 3 5 5 4 4 4 4 4 3 3 2 2 1 1
1 2 1 1 1 1 1 2 2 2 1 1 2 2 3 4 4 3 2 2 3 2 1 1 1 1 2 3 3 3 3 4 6 4 4 4 4 4 3 3 3 2 1 1
4 4 4 4 3 3 2 2 2 2 2 2 2 3 3 4 4 3 2 3 3 2 1 0 0 1 2 2 3 3 3 3 3 4 3 3 3 3 3 3 3 2 1 1
1 2 2 2 3 3 2 2 2 1 2 2 3 3 3 3 3 3 3 3 2 0 1 1 1 2 2 2 3 3 3 4 3 3 3 4 3 3 3 3 2 2 2 2
2 1 1 1 1 1 1 1 1 1 1 2 3 3 2 2 3 3 3 2 1 1 1 1 1 2 2 2 3 2 3 4 4 3 3 3 3 2 2 2 2 2 2 2
3 2 1 1 0 0 1 1 1 1 1 2 3 3 2 2 2 3 3 1 1 0 0 1 1 2 2 2 4 3 3 3 4 3 3 3 2 2 2 2 2 2 2 2
3 2 2 1 1 0 0 1 2 2 2 1 1 2 3 2 2 2 1 1 1 1 2 1 1 2 3 4 3 4 4 4 3 3 3 3 2 2 2 2 2 2 2 2
3 2 1 0 1 1 1 1 2 2 2 1 1 2 2 2 2 2 1 0 1 3 3 2 3 5 6 4 4 4 4 4 3 3 3 2 2 2 2 1 1 1 1 2
2 1 1 1 2 2 2 2 2 2 2 2 1 2 3 2 1 1 1 2 3 4 3 3 5 6 6 4 4 4 3 3 3 2 2 2 2 1 1 1 1 0 0 1
1 1 1 2 2 1 2 3 4 4 3 3 3 3 2 2 2 1 2 3 5 5 4 5 7 7 5 3 4 4 4 3 3 3 3 2 2 2 1 1 1 0 0 0
2 1 1 1 1 2 2 2 3 2 3 3 3 3 3 2 3 3 3 4 6 6 5 4 4 5 4 4 4 5 4 3 3 3 3 3 2 2 2 1 1 1 1 0
3 3 2 3 3 2 2 3 3 2 2 3 3 2 3 3 3 4 5 4 5 5 5 4 4 4 4 4 4 4 3 3 3 3 3 2 2 2 1 1 1 1 1 1
Wind_Direction
212 216 181 180 178 169 172 178 183 221 224 247 230 213 206 192 170 164 171 177 179 176 171 161 156 160 152 141 136 138 138 140 153 153 144 132 121 118 122 122 128 124 120 113
209 225 196 184 191 176 187 179 203 220 250 255 231 164 176 177 172 180 190 190 185 177 172 172 169 163 151 147 143 139 142 152 153 144 139 136 131 124 116 106 98 98 101 110
209 264 108 236 229 179 174 184 179 207 237 245 174 182 193 190 184 189 194 190 184 182 180 176 168 159 157 152 140 140 148 151 148 145 139 137 132 120 114 107 99 97 96 103
137 111 193 240 248 153 142 152 252 252 259 231 203 181 166 179 184 193 193 189 186 175 167 160 148 142 139 136 138 143 147 147 148 146 141 135 125 119 108 103 105 97 88 92
127 158 240 277 159 140 154 272 310 254 244 143 129 80 27 68 171 186 188 183 169 156 151 146 143 142 135 134 132 135 152 158 156 152 146 140 135 126 116 110 101 93 87 88
125 145 208 229 284 316 127 286 301 273 180 157 117 124 258 340 112 130 134 136 136 134 129 136 142 138 137 142 141 153 167 161 153 150 150 149 146 130 116 115 110 98 77 69
139 171 246 263 301 358 157 231 286 249 184 146 137 185 209 43 86 101 109 117 121 121 126 137 141 141 143 146 158 156 142 139 140 145 148 141 131 124 122 114 105 90 75 57
137 158 237 311 358 160 200 195 110 97 102 106 100 82 74 73 85 93 98 109 119 122 120 121 133 142 148 158 157 136 133 133 134 136 138 132 125 116 113 114 112 98 77 59
180 202 263 310 279 290 154 134 107 98 90 103 95 79 74 80 82 86 97 106 114 123 121 124 132 145 154 158 143 136 133 133 127 121 117 120 126 129 121 119 119 110 99 75
77 318 324 341 5 23 47 105 101 109 107 96 92 92 88 94 94 94 93 98 101 114 121 123 124 130 140 141 144 142 142 141 135 130 122 116 118 125 132 139 144 151 153 158
97 277 348 357 359 12 45 71 78 78 88 97 98 96 103 109 106 104 96 88 92 107 120 127 122 113 121 132 140 142 144 142 137 132 133 125 112 102 131 148 175 177 193 189
199 218 189 255 306 351 63 67 78 82 68 68 101 119 115 110 109 105 107 106 108 112 121 127 126 121 123 137 145 148 150 153 150 144 143 142 137 103 64 79 81 102 140 158
195 188 183 234 338 4 66 65 72 88 103 92 70 101 111 113 114 109 107 115 127 132 141 141 137 133 139 145 145 150 157 158 154 154 158 159 158 153 139 62 66 73 89 132
171 129 107 65 33 6 40 52 61 65 62 78 87 90 107 106 103 106 118 132 128 120 131 142 143 155 158 147 142 145 152 158 159 164 167 167 166 167 165 160 149 48 35 88
349 141 159 138 67 42 46 69 68 52 48 51 74 99 119 126 130 131 123 115 113 118 132 141 148 182 169 156 156 160 162 166 165 164 162 162 161 161 163 164 158 129 65 53
326 88 133 117 89 38 41 89 110 121 89 96 104 136 141 140 136 123 120 132 136 149 174 163 184 204 176 164 164 167 170 163 157 159 155 154 158 162 165 165 162 153 150 123
219 227 195 176 186 211 250 246 206 208 210 206 191 157 132 125 121 121 120 120 130 141 163 173 209 183 167 166 165 164 162 160 154 153 160 164 169 175 175 172 175 180 191 176
230 227 213 200 199 208 232 253 227 206 211 216 172 140 143 148 155 160 151 116 102 82 32 329 200 162 160 162 161 157 157 160 162 164 164 167 171 174 170 169 174 173 156 137
284 267 258 221 202 196 211 233 225 206 197 170 142 147 158 162 157 148 133 122 126 157 301 302 145 141 150 160 152 153 155 154 154 154 155 154 153 154 163 169 172 174 170 162
351 331 302 265 182 178 204 222 194 167 156 146 137 135 143 153 151 147 136 135 224 243 243 217 153 141 149 153 148 157 155 152 151 146 144 149 149 152 162 171 176 180 185 190
347 351 359 335 282 175 177 182 170 149 128 141 153 163 164 151 138 135 129 139 310 342 135 139 138 142 140 143 140 152 149 146 146 146 146 147 148 155 170 178 182 188 197 206
338 345 345 357 109 138 101 118 132 129 115 108 127 136 130 120 114 105 102 170 202 145 133 127 120 126 129 126 133 135 137 139 138 137 141 149 156 166 185 196 200 202 208 211
327 314 311 303 158 122 62 82 115 127 129 134 140 141 140 141 140 137 158 304 132 134 126 120 118 117 116 117 123 125 127 129 131 134 141 151 157 164 179 198 213 212 213 219
329 328 340 44 97 100 86 72 85 93 97 92 103 126 129 118 71 59 134 124 116 116 107 109 108 104 103 105 111 110 109 112 116 118 119 122 128 138 151 160 182 195 199 227
3 38 70 84 92 99 103 99 87 80 79 79 73 70 77 103 123 112 103 107 109 109 100 99 102 101 100 101 101 100 98 99 107 108 103 102 108 120 124 121 131 132 81 21
28 44 57 75 102 112 114 107 95 84 90 86 68 60 66 75 90 95 97 96 97 100 98 97 100 101 98 96 95 97 98 98 99 101 104 106 102 98 89 85 87 80 58 10
39 48 61 63 65 81 95 99 101 94 96 104 89 68 69 75 86 93 94 93 92 89 87 85 88 94 97 97 94 91 93 93 93 92 93 91 88 86 79 71 51 41 32 12
Height
1504 1501 1500 1500 1502 1508 1511 1517 1524 1519 1517 1505 1499 1498 1498 1500 1503 1506 1509 1511 1514 1517 1519 1522 1524 1526 1528 1529 1531 1532 1534 1535 1536 1537 1538 1539 1540 1540 1541 1541 1542 1542 1543 1543
1503 1500 1499 1500 1500 1502 1504 1507 1510 1508 1508 1495 1495 1496 1498 1500 1501 1504 1506 1509 1511 1515 1518 1520 1522 1525 1527 1529 1531 1532 1533 1534 1535 1536 1537 1538 1538 1539 1539 1540 1540 1541 1541 1541
1513 1503 1501 1510 1502 1501 1502 1501 1503 1506 1500 1494 1494 1494 1495 1497 1499 1501 1504 1507 1510 1513 1516 1519 1522 1524 1526 1528 1530 1531 1532 1533 1534 1535 1536 1537 1537 1538 1538 1539 1539 1539 1539 1539
1515 1510 1520 1508 1495 1496 1499 1500 1499 1497 1494 1493 1492 1493 1495 1497 1498 1500 1503 1506 1509 1512 1515 1519 1521 1523 1525 1527 1528 1529 1530 1531 1532 1534 1534 1535 1536 1537 1537 1538 1538 1538 1537 1538
1519 1520 1514 1502 1495 1496 1499 1501 1497 1495 1493 1492 1492 1493 1495 1496 1498 1500 1502 1505 1508 1511 1514 1517 1520 1522 1524 1526 1527 1528 1529 1530 1530 1532 1533 1534 1535 1536 1536 1537 1537 1537 1537 1537
1516 1518 1521 1504 1493 1492 1496 1502 1495 1494 1492 1492 1492 1498 1497 1496 1497 1499 1502 1504 1507 1510 1513 1516 1518 1521 1522 1524 1525 1526 1528 1528 1529 1531 1532 1533 1534 1534 1535 1536 1536 1536 1536 1536
1513 1514 1509 1497 1493 1493 1506 1504 1495 1493 1492 1492 1493 1495 1496 1496 1497 1498 1501 1504 1507 1509 1512 1515 1517 1519 1521 1523 1524 1525 1526 1527 1528 1529 1531 1532 1533 1533 1534 1535 1535 1535 1535 1535
1514 1514 1512 1495 1493 1496 1497 1493 1493 1493 1492 1493 1494 1494 1495 1495 1497 1498 1501 1504 1506 1508 1511 1514 1516 1518 1520 1522 1524 1524 1525 1526 1527 1528 1529 1530 1531 1532 1533 1534 1534 1534 1534 1534
1507 1507 1499 1495 1494 1494 1494 1493 1494 1494 1494 1494 1495 1495 1496 1496 1498 1499 1502 1505 1507 1508 1510 1512 1515 1518 1519 1521 1523 1524 1524 1525 1526 1527 1528 1529 1530 1531 1532 1533 1533 1533 1533 1533
1503 1500 1497 1496 1495 1494 1494 1494 1495 1495 1495 1496 1496 1496 1497 1498 1499 1501 1503 1506 1508 1509 1511 1512 1515 1517 1518 1520 1521 1522 1523 1524 1524 1525 1526 1528 1528 1529 1530 1530 1531 1531 1531 1531
1502 1500 1498 1497 1496 1496 1495 1496 1496 1496 1497 1497 1497 1497 1498 1499 1500 1502 1503 1505 1508 1510 1511 1512 1514 1516 1517 1518 1520 1521 1522 1523 1523 1524 1525 1526 1527 1527 1528 1529 1529 1530 1529 1529
1501 1498 1498 1498 1497 1497 1496 1497 1497 1497 1498 1498 1499 1499 1499 1500 1501 1502 1504 1506 1508 1510 1511 1512 1514 1515 1516 1517 1518 1519 1520 1521 1522 1522 1523 1524 1525 1526 1527 1528 1528 1528 1527 1528
1495 1496 1497 1497 1498 1498 1497 1498 1499 1499 1499 1499 1499 1499 1500 1501 1502 1503 1504 1506 1508 1509 1510 1512 1513 1514 1515 1516 1517 1518 1519 1519 1520 1521 1521 1522 1523 1524 1525 1525 1525 1525 1525 1525
1495 1496 1497 1497 1498 1498 1498 1498 1499 1500 1500 1500 1500 1500 1501 1502 1502 1503 1504 1505 1507 1508 1510 1511 1512 1513 1514 1515 1516 1516 1517 1518 1518 1519 1519 1520 1521 1521 1522 1523 1523 1523 1523 1523
1495 1496 1496 1497 1497 1498 1498 1498 1499 1499 1499 1500 1500 1500 1501 1502 1502 1503 1504 1505 1506 1508 1509 1509 1510 1511 1512 1513 1513 1514 1515 1515 1516 1517 1517 1518 1519 1520 1521 1521 1521 1521 1521 1521
1494 1495 1496 1496 1496 1497 1498 1498 1498 1498 1499 1499 1499 1500 1501 1501 1502 1502 1503 1505 1505 1506 1507 1508 1508 1509 1510 1510 1511 1511 1512 1513 1514 1515 1515 1516 1517 1518 1518 1519 1519 1519 1519 1519
1493 1493 1494 1495 1495 1496 1497 1497 1497 1497 1497 1498 1498 1499 1500 1500 1501 1501 1502 1503 1504 1505 1506 1506 1507 1507 1508 1508 1509 1509 1510 1511 1512 1513 1513 1514 1515 1516 1516 1517 1517 1518 1518 1518
1491 1491 1492 1493 1493 1494 1495 1495 1495 1495 1495 1496 1497 1497 1498 1499 1499 1500 1501 1501 1501 1502 1503 1504 1505 1505 1506 1506 1507 1507 1508 1509 1509 1510 1511 1512 1513 1514 1515 1515 1516 1516 1516 1517
1488 1489 1490 1490 1491 1492 1492 1493 1493 1493 1494 1494 1495 1495 1496 1497 1498 1498 1499 1500 1500 1500 1501 1502 1502 1503 1504 1504 1505 1506 1506 1507 1508 1508 1509 1510 1511 1512 1513 1514 1514 1515 1515 1516
1487 1487 1487 1488 1489 1489 1490 1491 1491 1492 1492 1493 1493 1494 1495 1496 1497 1497 1497 1498 1498 1499 1500 1500 1500 1501 1502 1502 1503 1504 1505 1505 1506 1507 1508 1509 1510 1511 1512 1513 1513 1514 1515 1515
1484 1484 1485 1485 1486 1487 1488 1489 1489 1490 1490 1491 1492 1492 1493 1494 1495 1495 1495 1496 1497 1498 1498 1499 1499 1499 1500 1500 1500 1502 1503 1504 1505 1505 1507 1508 1509 1510 1511 1512 1512 1513 1514 1514
1483 1482 1483 1483 1484 1485 1486 1487 1488 1488 1489 1490 1491 1491 1492 1493 1493 1494 1495 1496 1496 1497 1497 1498 1497 1498 1498 1499 1499 1500 1502 1503 1504 1505 1506 1507 1508 1509 1510 1511 1511 1512 1512 1512
1481 1481 1481 1482 1482 1483 1485 1486 1486 1487 1488 1489 1490 1491 1491 1492 1493 1494 1494 1496 1496 1497 1497 1497 1498 1498 1498 1499 1500 1501 1502 1503 1504 1505 1506 1506 1507 1508 1509 1509 1510 1510 1511 1511
1480 1480 1480 1480 1481 1482 1483 1484 1485 1486 1487 1488 1489 1490 1491 1492 1493 1494 1495 1496 1496 1497 1497 1498 1498 1499 1499 1500 1501 1501 1502 1503 1504 1505 1506 1506 1507 1507 1508 1508 1509 1509 1509 1509
1480 1479 1480 1480 1481 1482 1483 1484 1485 1486 1487 1487 1489 1490 1491 1492 1493 1494 1495 1496 1497 1497 1497 1498 1499 1500 1500 1501 1501 1502 1502 1503 1504 1505 1506 1506 1507 1507 1507 1508 1508 1508 1508 1508
1480 1480 1480 1481 1482 1482 1483 1484 1485 1486 1487 1488 1489 1490 1491 1493 1494 1495 1495 1496 1497 1498 1499 1499 1500 1501 1502 1502 1502 1503 1503 1504 1505 1506 1506 1506 1507 1507 1507 1507 1507 1507 1507 1507
1481 1482 1482 1482 1483 1484 1485 1486 1487 1488 1489 1490 1490 1491 1492 1493 1494 1495 1496 1497 1498 1499 1500 1501 1501 1502 1503 1503 1503 1504 1505 1505 1506 1506 1506 1506 1507 1506 1507 1507 1507 1506 1506 1506